sat.trackr.live / text

‹ back to catalog

SDS-4

NORAD 38339 · 2012-025C

PAYLOAD ACTIVE UNKNOWN

§ Identity

Operator
Country
JPN
Launch date
2012-05-17
Launch site
TANSC
Launch vehicle
Mass (kg)
RCS (m²)
0.45

External: N2YO · Heavens-Above · Gunter

§ Orbital elements

Epoch: 2026-05-25T04:44:21.852960Z

Period
97.58 min
Inclination
98.1349°
Eccentricity
0.0007279
Mean motion
14.75775590 rev/d
Perigee alt
637.6 km
Apogee alt
647.8 km
Semi-major
7,020.8 km
B*
6.9573e-5
RAAN
240.9738°
Arg perigee
22.3569°
Mean anomaly
337.7956°
Rev number
75,259

§ Raw data

SDS-41 38339U 12025C   26145.19747515  .00000424  00000+0  69573-4 0  99962 38339  98.1349 240.9738 0007279  22.3569 337.7956 14.75775590752595

JSON: /api/v1/satellites/38339 · /tle

For live sub-satellite position, see the globe view (requires WebGL).

§ Visibility from observer

Set your observer location to see the next 7 days of passes ≥ 10°. The values pass through the URL so the page stays shareable.

No JS? Fill the form by hand. The geolocation button needs JavaScript.